{"data":{"norad_id":51871,"intl_designator":"2022-022V","name":"STARLINK-3567","alt_names":[],"object_type":"PAYLOAD","status":"ACTIVE","operator":null,"country":"US","launch_date":"2022-03-03","launch_site_code":"AFETR","launch_vehicle":null,"mission":null,"orbit_class":"UNKNOWN","rcs_meters":null,"size_class":null,"mass_kg":null,"dimensions":null,"purposes":["comms"],"wikipedia_slug":null,"has_3d_model":false,"image_url":null,"decayed_at":null,"tle_current":{"epoch":"2026-09-19T13:50:41.669952Z","epoch_age_seconds":131424,"freshness":"FRESH","line1":"1 51871U 22022V   26262.57687118  .00000394  00000+0  22789-4 0  9998","line2":"2 51871  53.1601 208.3764 0001148  99.0371 261.0762 15.34387028252636","mean_motion":15.34387028,"eccentricity":0.0001148,"inclination_deg":53.1601,"raan_deg":208.3764,"arg_perigee_deg":99.0371,"mean_anomaly_deg":261.0762,"bstar":2.2789e-5,"rev_number":25263,"period_min":93.848551488145,"perigee_km":461.95646311068,"apogee_km":463.52712888224,"semimajor_km":6840.8787959965,"source":"CELESTRAK","updated_at":"2026-09-20T09:00:39.948391Z"}}}